TimeCST,TemperatureF,Dew PointF,Humidity,Sea Level PressureIn,VisibilityMPH,Wind Direction,Wind SpeedMPH,Gust SpeedMPH,PrecipitationIn,Events,Conditions,WindDirDegrees,DateUTC
12:15 AM,8.6,1.4,73,30.04,10.0,WNW,5.8,-,N/A,,Mostly Cloudy,290,2013-01-13 06:15:00
12:35 AM,8.6,1.4,73,30.04,10.0,WNW,9.2,-,N/A,,Overcast,300,2013-01-13 06:35:00
12:55 AM,8.6,1.4,73,30.03,10.0,WNW,8.1,-,N/A,,Overcast,290,2013-01-13 06:55:00
1:15 AM,8.6,-0.4,67,30.03,10.0,WNW,6.9,-,N/A,,Overcast,300,2013-01-13 07:15:00
1:35 AM,6.8,-0.4,72,30.03,10.0,NW,5.8,-,N/A,,Overcast,320,2013-01-13 07:35:00
1:55 AM,6.8,-0.4,72,30.03,10.0,WNW,6.9,-,N/A,,Mostly Cloudy,300,2013-01-13 07:55:00
2:15 AM,6.8,-0.4,72,30.04,10.0,WNW,5.8,-,N/A,,Scattered Clouds,300,2013-01-13 08:15:00
2:34 AM,6.8,-0.4,72,30.05,10.0,NW,5.8,-,N/A,,Clear,310,2013-01-13 08:34:00
2:55 AM,6.8,-0.4,72,30.04,10.0,NW,4.6,-,N/A,,Clear,320,2013-01-13 08:55:00
3:15 AM,6.8,-0.4,72,30.04,10.0,NW,5.8,-,N/A,,Clear,310,2013-01-13 09:15:00
3:35 AM,6.8,-0.4,72,30.04,10.0,WNW,4.6,-,N/A,,Clear,300,2013-01-13 09:35:00
3:55 AM,6.8,-0.4,72,30.03,10.0,WNW,4.6,-,N/A,,Clear,300,2013-01-13 09:55:00
4:15 AM,6.8,-0.4,72,30.02,10.0,NW,4.6,-,N/A,,Clear,310,2013-01-13 10:15:00
4:35 AM,6.8,-0.4,72,30.02,10.0,WNW,4.6,-,N/A,,Clear,290,2013-01-13 10:35:00
4:55 AM,5.0,-0.4,78,30.03,10.0,WNW,6.9,-,N/A,,Scattered Clouds,290,2013-01-13 10:55:00
5:15 AM,6.8,-0.4,72,30.04,10.0,WNW,9.2,-,N/A,,Overcast,290,2013-01-13 11:15:00
5:35 AM,6.8,-0.4,72,30.04,10.0,WNW,9.2,-,N/A,,Overcast,290,2013-01-13 11:35:00
5:55 AM,6.8,-0.4,72,30.05,10.0,WNW,9.2,-,N/A,,Overcast,290,2013-01-13 11:55:00
6:15 AM,6.8,-0.4,72,30.06,10.0,WNW,6.9,-,N/A,,Overcast,290,2013-01-13 12:15:00
6:35 AM,6.8,-0.4,72,30.08,10.0,WNW,8.1,-,N/A,,Overcast,290,2013-01-13 12:35:00
6:55 AM,6.8,-0.4,72,30.08,7.0,WNW,6.9,-,N/A,,Overcast,290,2013-01-13 12:55:00
7:15 AM,6.8,-0.4,72,30.09,7.0,West,5.8,-,N/A,,Overcast,280,2013-01-13 13:15:00
7:35 AM,6.8,1.4,79,30.10,7.0,WNW,8.1,-,N/A,,Overcast,290,2013-01-13 13:35:00
7:55 AM,6.8,1.4,79,30.10,7.0,West,5.8,-,N/A,Snow,Light Snow,280,2013-01-13 13:55:00
8:15 AM,6.8,1.4,79,30.11,5.0,West,6.9,-,N/A,Snow,Light Snow,280,2013-01-13 14:15:00
8:35 AM,6.8,1.4,79,30.11,7.0,West,9.2,-,N/A,,Overcast,280,2013-01-13 14:35:00
8:55 AM,6.8,1.4,79,30.11,4.0,NW,5.8,-,N/A,Snow,Light Snow,310,2013-01-13 14:55:00
9:15 AM,8.6,1.4,73,30.11,4.0,WNW,6.9,-,N/A,Snow,Light Snow,290,2013-01-13 15:15:00
9:35 AM,8.6,1.4,73,30.12,4.0,WNW,8.1,-,N/A,Snow,Light Snow,300,2013-01-13 15:35:00
9:55 AM,8.6,1.4,73,30.11,4.0,WNW,9.2,-,N/A,Snow,Light Snow,290,2013-01-13 15:55:00
10:15 AM,8.6,1.4,73,30.11,5.0,West,10.4,-,N/A,,Haze,280,2013-01-13 16:15:00
10:35 AM,8.6,3.2,79,30.10,7.0,WNW,10.4,-,N/A,,Overcast,290,2013-01-13 16:35:00
10:55 AM,10.4,3.2,73,30.10,5.0,WNW,10.4,-,N/A,Snow,Light Snow,290,2013-01-13 16:55:00
11:15 AM,10.4,3.2,73,30.08,7.0,WNW,9.2,-,N/A,Snow,Light Snow,300,2013-01-13 17:15:00
11:35 AM,10.4,3.2,73,30.07,7.0,WNW,9.2,-,N/A,Snow,Light Snow,290,2013-01-13 17:35:00
11:55 AM,10.4,1.4,67,30.06,5.0,WNW,10.4,-,N/A,Snow,Light Snow,290,2013-01-13 17:55:00
12:15 PM,10.4,3.2,73,30.06,4.0,West,11.5,-,N/A,Snow,Light Snow,280,2013-01-13 18:15:00
12:55 PM,10.4,1.4,67,30.07,3.0,WNW,9.2,-,N/A,Snow,Light Snow,290,2013-01-13 18:55:00
1:15 PM,10.4,3.2,73,30.08,3.0,WNW,8.1,-,N/A,Snow,Light Snow,300,2013-01-13 19:15:00
1:35 PM,10.4,1.4,67,30.08,4.0,WNW,5.8,-,N/A,Snow,Light Snow,300,2013-01-13 19:35:00
1:55 PM,10.4,3.2,73,30.08,3.0,WNW,6.9,-,N/A,Snow,Light Snow,290,2013-01-13 19:55:00
2:15 PM,10.4,3.2,73,30.09,3.0,West,9.2,-,N/A,Snow,Light Snow,270,2013-01-13 20:15:00
2:35 PM,10.4,3.2,73,30.10,4.0,West,9.2,-,N/A,Snow,Light Snow,280,2013-01-13 20:35:00
2:55 PM,10.4,3.2,73,30.10,3.0,West,10.4,-,N/A,Snow,Light Snow,280,2013-01-13 20:55:00
3:15 PM,10.4,3.2,73,30.10,5.0,WNW,11.5,-,N/A,Snow,Light Snow,290,2013-01-13 21:15:00
3:35 PM,10.4,1.4,67,30.11,7.0,WNW,5.8,-,N/A,Snow,Light Snow,300,2013-01-13 21:35:00
3:55 PM,10.4,3.2,73,30.11,3.0,WNW,9.2,-,N/A,Snow,Light Snow,300,2013-01-13 21:55:00
4:15 PM,10.4,3.2,73,30.11,2.0,WNW,5.8,-,N/A,Snow,Light Snow,300,2013-01-13 22:15:00
4:35 PM,10.4,3.2,73,30.12,2.0,NW,9.2,-,N/A,Snow,Light Snow,310,2013-01-13 22:35:00
4:55 PM,10.4,1.4,67,30.13,10.0,WNW,10.4,-,N/A,,Overcast,290,2013-01-13 22:55:00
5:15 PM,8.6,1.4,73,30.14,10.0,WNW,8.1,-,N/A,,Overcast,300,2013-01-13 23:15:00
5:35 PM,8.6,3.2,79,30.14,10.0,NW,11.5,-,N/A,,Mostly Cloudy,310,2013-01-13 23:35:00
5:55 PM,8.6,1.4,73,30.14,10.0,WNW,8.1,-,N/A,,Scattered Clouds,300,2013-01-13 23:55:00
6:15 PM,8.6,1.4,73,30.15,10.0,WNW,12.7,-,N/A,,Scattered Clouds,300,2013-01-14 00:15:00
6:35 PM,8.6,1.4,73,30.15,10.0,WNW,10.4,-,N/A,,Scattered Clouds,290,2013-01-14 00:35:00
6:55 PM,10.4,3.2,73,30.16,10.0,WNW,8.1,-,N/A,,Mostly Cloudy,300,2013-01-14 00:55:00
7:15 PM,8.6,1.4,73,30.17,10.0,NW,9.2,-,N/A,,Scattered Clouds,310,2013-01-14 01:15:00
7:35 PM,8.6,1.4,73,30.18,10.0,WNW,11.5,16.1,N/A,,Clear,300,2013-01-14 01:35:00
7:55 PM,8.6,1.4,73,30.18,10.0,West,9.2,-,N/A,,Clear,280,2013-01-14 01:55:00
8:15 PM,8.6,1.4,73,30.19,10.0,West,11.5,-,N/A,,Clear,270,2013-01-14 02:15:00
8:35 PM,6.8,1.4,79,30.19,10.0,West,11.5,-,N/A,,Clear,280,2013-01-14 02:35:00
8:55 PM,6.8,1.4,79,30.20,10.0,WNW,5.8,-,N/A,,Clear,290,2013-01-14 02:55:00
9:15 PM,6.8,1.4,79,30.21,10.0,West,6.9,-,N/A,,Clear,270,2013-01-14 03:15:00
9:35 PM,6.8,1.4,79,30.22,10.0,West,8.1,-,N/A,,Clear,270,2013-01-14 03:35:00
9:55 PM,6.8,1.4,79,30.22,10.0,West,5.8,-,N/A,,Clear,280,2013-01-14 03:55:00
10:15 PM,6.8,-0.4,72,30.22,10.0,West,6.9,-,N/A,,Clear,280,2013-01-14 04:15:00
10:35 PM,5.0,-0.4,78,30.22,10.0,West,5.8,-,N/A,,Clear,280,2013-01-14 04:35:00
10:54 PM,5.0,-0.4,78,30.23,10.0,West,5.8,-,N/A,,Clear,280,2013-01-14 04:54:00
11:15 PM,5.0,-0.4,78,30.23,10.0,West,4.6,-,N/A,,Clear,280,2013-01-14 05:15:00
11:35 PM,5.0,-0.4,78,30.24,10.0,West,3.5,-,N/A,,Clear,280,2013-01-14 05:35:00
11:55 PM,3.2,-0.4,85,30.24,10.0,Calm,Calm,-,N/A,,Clear,0,2013-01-14 05:55:00